Regional Weather Roundup
Issued by NWS

Home | Current Version | Previous Version | Graphics & Text | Print | Product List | Glossary On
Versions: 1 2 3 4 5 6 7 8 9 10 11 12 13 14 15 16 17 18 19 20 21 22 23 24 25 26 27 28 29 30 31 32 33 34 35 36 37 38 39 40 41 42 43 44 45 46 47 48 49 50
000
ASUS43 KFSD 210110
RWRSD

WEATHER ROUNDUP FOR SOUTH DAKOTA
NATIONAL WEATHER SERVICE SIOUX FALLS SD
800 PM CDT FRI APR 20 2018

NOTE: "FAIR" INDICATES FEW OR NO CLOUDS BELOW 12,000 FEET WITH NO
SIGNIFICANT WEATHER AND/OR OBSTRUCTIONS TO VISIBILITY.


SDZ001>005-009-010-012>017-210200-
NORTHWEST AND NORTH CENTRAL SOUTH DAKOTA

CITY           SKY/WX    TMP DP  RH WIND       PRES   REMARKS
BUFFALO          N/A     48  38  68 S31G40    30.08R
FAITH            N/A     44  42  93 S23       30.24R
MOBRIDGE       CLOUDY    50  35  56 S12       30.26R
$$

SDZ012>016-024>037-041>051-057-063-072>074-210200-
SOUTHWEST AND SOUTH CENTRAL SOUTH DAKOTA

CITY           SKY/WX    TMP DP  RH WIND       PRES   REMARKS
RAPID CTY ARPT CLOUDY    39  37  92 SE16      30.22R
PIERRE         CLOUDY    47  38  71 S13       30.32R
CUSTER         CLOUDY    32  30  92 SE9       30.15S FOG     WCI  24
ELLSWORTH AFB  CLOUDY    40  40 100 S16       30.21
PHILIP         CLOUDY    43  42  97 SE6       30.28F
PINE RIDGE     CLOUDY    41  39  93 E7        30.21R
SPEARFISH      CLOUDY    41  39  93 E14       30.15R
WINNER         CLOUDY    43  36  76 S8        30.33R
$$

SDZ004>011-016>023-039-040-210200-
NORTHEAST SOUTH DAKOTA

CITY           SKY/WX    TMP DP  RH WIND       PRES   REMARKS
ABERDEEN       MOCLDY    49  39  68 S8        30.35R
WATERTOWN      CLOUDY    44  39  82 SE8       30.36S
BROOKINGS      CLOUDY    43  38  82 E8        30.37S
SISSETON         N/A     45  40  82 SE9       30.36F
$$

SDZ017-020-022-023-036>040-048>070-210200-
SOUTHEAST SOUTH DAKOTA

CITY           SKY/WX    TMP DP  RH WIND       PRES   REMARKS
SIOUX FALLS    CLOUDY    43  37  79 E9        30.36S
HURON          CLOUDY    46  37  71 SE8       30.34S
CHAMBERLAIN    RAIN      45  43  92 E3        30.33R
MITCHELL       CLOUDY    42  36  79 E6        30.35S
YANKTON        CLOUDY    48  40  73 E10       30.33R
$$

ABBREVIATIONS USED IN REMARKS
   TC - TEMPERATURE IN CELSIUS
  WCI - WIND CHILL INDEX
   HX - HEAT INDEX
  VSB - VISIBILITY





USA.gov is the U.S. government's official web portal to all federal, state and local government web resources and services.